UTC  calendar date,Angular Size (deg),Planetocentric sub-spacecraft Longitude (deg),Planetocentric sub-spacecraft Latitude (deg),Planetocentric Subsolar Longitude (deg),Planetocentric Subsolar Latitude (deg),Planetographic Sub-Spacecraft Longitude (deg),Planetographic Sub-Spacecraft  Latitude (deg),Planetographic Solar Longitude (deg),Planetographic Solar Latitude (deg),Sub-Point Radius (km),Observer Distance (km),Phase Angle (deg)
2020-07-25 01:15:00.000000 UTC,16.49505919,96.68812535,16.09578907,-56.87268977,-1.12018639,263.3118747,18.26193183,56.87268977,-1.2809535,71100.78255,427318.6876,148.9953591
2020-07-25 01:25:00.000000 UTC,16.90867315,90.47391637,16.63832123,-62.91749135,-1.12016089,269.5260836,18.8675516,62.91749135,-1.28092434,71074.94985,415241.1816,148.5491835
2020-07-25 01:35:00.000000 UTC,17.34862407,84.24977828,17.20986181,-68.96229292,-1.12013539,275.7502217,19.5045318,68.96229292,-1.28089519,71046.94981,403030.9654,148.0740759
2020-07-25 01:45:00.000000 UTC,17.81764296,78.01465104,17.81317026,-75.0070945,-1.1201099,281.985349,20.17575002,75.0070945,-1.28086604,71016.53366,390682.8023,147.5672395
2020-07-25 01:55:00.000000 UTC,18.31885958,71.76730776,18.45138743,-81.05189607,-1.1200844,288.2326922,20.88446659,81.05189607,-1.28083688,70983.41487,378191.1123,147.0254979
2020-07-25 02:05:00.000000 UTC,18.85587876,65.50631941,19.1281054,-87.09669765,-1.1200589,294.4936806,21.63439197,87.09669765,-1.28080773,70947.262,365549.944,146.4452269
2020-07-25 02:15:00.000000 UTC,19.43287466,59.23000993,19.8474535,-93.14149922,-1.12003341,300.7699901,22.42976898,93.14149922,-1.28077857,70907.6899,352752.9454,145.8222715
2020-07-25 02:25:00.000000 UTC,20.05470876,52.93639862,20.61420491,-99.1863008,-1.12000791,307.0636014,23.27547392,99.1863008,-1.28074942,70864.24875,339793.3331,145.1518434
2020-07-25 02:35:00.000000 UTC,20.72707834,46.62312521,21.43390983,-105.2311024,-1.11998241,313.3768748,24.1771417,105.2311024,-1.28072027,70816.41054,326663.8611,144.4283934
2020-07-25 02:45:00.000000 UTC,21.45670519,40.28735133,22.31306341,-111.275904,-1.11995691,319.7126487,25.14132208,111.275904,-1.28069111,70763.55208,313356.7903,143.6454517
2020-07-25 02:55:00.000000 UTC,22.25157807,33.92562896,23.25931917,-117.3207055,-1.11993142,326.074371,26.17567615,117.3207055,-1.28066196,70704.93377,299863.8606,142.7954263
2020-07-25 03:05:00.000000 UTC,23.12126712,27.53372207,24.28176317,-123.3655071,-1.11990592,332.4662779,27.28922567,123.3655071,-1.2806328,70639.67256,286176.2689,141.8693451
2020-07-25 03:15:00.000000 UTC,24.07733682,21.10636064,25.39126955,-129.4103087,-1.11988042,338.8936394,28.49267237,129.4103087,-1.28060365,70566.70788,272284.6585,140.856524
2020-07-25 03:25:00.000000 UTC,25.13389489,14.63689477,26.60096686,-135.4551103,-1.11985492,345.3631052,29.79881071,135.4551103,-1.28057449,70484.75802,258179.1274,139.7441344
2020-07-25 03:35:00.000000 UTC,26.30833208,8.11679748,27.92685647,-141.4999118,-1.11982943,351.8832025,31.22306679,141.4999118,-1.28054534,70392.26475,243849.27,138.5166329
2020-07-25 03:45:00.000000 UTC,27.6223344,1.5349324,29.38864271,-147.5447134,-1.11980393,358.4650676,32.78420908,147.5447134,-1.28051618,70287.32267,229284.2709,137.1550006
2020-07-25 03:55:00.000000 UTC,29.1032906,-5.12355573,31.01086052,-153.589515,-1.11977843,5.12355573,34.50529502,153.589515,-1.28048703,70167.59038,214473.0869,135.6357138
2020-07-25 04:05:00.000000 UTC,30.78628482,-11.87897754,32.82442558,-159.6343166,-1.11975293,11.87897754,36.41494347,159.6343166,-1.28045787,70030.18075,199404.7702,133.9293325
2020-07-25 04:15:00.000000 UTC,32.7169731,-18.75992124,34.86878817,-165.6791181,-1.11972743,18.75992124,38.54905779,165.6791181,-1.28042872,69871.53155,184069.024,131.9985349
2020-07-25 04:25:00.000000 UTC,34.95582515,-25.80804874,37.19494873,-171.7239197,-1.11970193,25.80804874,40.95316628,171.7239197,-1.28039956,69687.26836,168457.1411,129.7953367
2020-07-25 04:35:00.000000 UTC,37.58452518,-33.08669228,39.86968239,-177.7687213,-1.11967644,33.08669228,43.68558114,177.7687213,-1.2803704,69472.09929,152563.5832,127.2570923
2020-07-25 04:45:00.000000 UTC,40.71587054,-40.69729572,42.98136125,176.1864771,-1.11965094,40.69729572,46.82154114,183.8135229,-1.28034125,69219.85126,136388.6488,124.3006484
2020-07-25 04:55:00.000000 UTC,44.50947156,-48.81349243,46.64749482,170.1416756,-1.11962544,48.81349243,50.45815996,189.8583244,-1.28031209,68923.92885,119943.0235,120.8136588
2020-07-25 05:05:00.000000 UTC,49.19725816,-57.7593239,51.02245357,164.096874,-1.11959994,57.7593239,54.71843837,195.903126,-1.28028293,68578.89373,103255.6567,116.6414937
2020-07-25 05:15:00.000000 UTC,55.12566443,-68.21413779,56.29609387,158.0520724,-1.11957444,68.21413779,59.74591142,201.9479276,-1.28025378,68184.85517,86387.66034,111.567289
2020-07-25 05:25:00.000000 UTC,62.82529963,-81.8496259,62.63630026,152.0072708,-1.11954894,81.8496259,65.64971418,207.9927292,-1.28022462,67758.59866,69457.41181,105.2813683
2020-07-25 05:35:00.000000 UTC,73.11921754,-103.7136832,69.80832285,145.9624692,-1.11952344,103.7136832,72.17250069,214.0375308,-1.28019546,67359.62766,52687.26631,97.33454175
2020-07-25 05:45:00.000000 UTC,87.24622871,-148.5364059,74.83941522,139.9176677,-1.11949794,148.5364059,76.67017687,220.0823323,-1.28016631,67142.87833,36494.04452,87.06877745
2020-07-25 05:55:00.000000 UTC,106.7417588,154.8503115,68.45259858,133.8728661,-1.11947244,205.1496885,70.950468,226.1271339,-1.28013715,67427.33935,21673.24271,73.53195534
2020-07-25 06:05:00.000000 UTC,131.6151701,124.9386632,50.49921487,127.8280645,-1.11944694,235.0613368,54.213326,232.1719355,-1.28010799,68619.46184,9773.854007,55.54908997
2020-07-25 06:15:00.000000 UTC,149.5429807,107.7494857,26.2948225,121.7832629,-1.11942144,252.2505143,29.46885733,238.2167371,-1.28007884,70505.72476,3593.231186,33.54924011
2020-07-25 06:25:00.000000 UTC,133.9970279,94.65295331,1.04967733,115.7384613,-1.11939594,265.3470467,1.20033084,244.2615387,-1.28004968,71490.27785,6176.652072,21.23117294
2020-07-25 06:35:00.000000 UTC,108.9886015,82.91061664,-19.76535716,109.6936597,-1.11937044,277.0893834,-22.33909055,250.3063403,-1.28002052,70912.26464,16923.28131,33.49034474
2020-07-25 06:45:00.000000 UTC,88.99116289,71.46288825,-35.0695764,103.6488582,-1.11934494,288.5371118,-38.75759178,256.3511418,-1.27999136,69855.767,32196.81437,47.64388601
2020-07-25 06:55:00.000000 UTC,74.43251483,59.78932263,-46.23667847,97.60405657,-1.11931944,300.2106774,-50.05372612,262.3959434,-1.2799622,68956.88147,49309.6702,58.38772957
2020-07-25 07:05:00.000000 UTC,63.82372311,47.56009771,-54.53391163,91.55925499,-1.11929394,312.4399023,-58.07851288,268.440745,-1.27993305,68313.17387,66995.76304,66.47481351
2020-07-25 07:15:00.000000 UTC,55.90109735,34.52839309,-60.77681462,85.5144534,-1.11926844,325.4716069,-63.93287727,274.4855466,-1.27990389,67877.24823,84709.41278,72.75025237
2020-07-25 07:25:00.000000 UTC,49.81340453,20.51982584,-65.46866304,79.46965182,-1.11924294,339.4801742,-68.24344921,280.5303482,-1.27987473,67589.352,102215.8571,77.77226174
2020-07-25 07:35:00.000000 UTC,45.0095134,5.47854005,-68.92606848,73.42485023,-1.11921744,354.52146,-71.37777999,286.5751498,-1.27984557,67403.26122,119416.3414,81.89717833
2020-07-25 07:45:00.000000 UTC,41.12933991,-10.45728149,-71.36148411,67.38004864,-1.11919193,10.45728149,-73.56695399,292.6199514,-1.27981641,67286.79768,136274.1783,85.35834644
2020-07-25 07:55:00.000000 UTC,37.93200935,-26.90914517,-72.93916721,61.33524706,-1.11916643,26.90914517,-74.97778609,298.6647529,-1.27978725,67218.16526,152781.9637,88.31395469
2020-07-25 08:05:00.000000 UTC,35.25199257,-43.31925404,-73.81052997,55.29044547,-1.11914093,43.31925404,-75.75472723,304.7095545,-1.27975809,67182.62758,168946.2547,90.87486113
2020-07-25 08:15:00.000000 UTC,32.9725033,-59.12547814,-74.12699062,49.24564388,-1.11911543,59.12547814,-76.03651673,310.7543561,-1.27972893,67170.14486,184780.0872,93.12108102
2020-07-25 08:25:00.000000 UTC,31.00911234,-73.93677593,-74.03369999,43.20084229,-1.11908993,73.93677593,-75.95346749,316.7991577,-1.27969978,67173.80108,200299.2049,95.11187156
2020-07-25 08:35:00.000000 UTC,29.29942114,-87.59410867,-73.6567495,37.1560407,-1.11906443,87.59410867,-75.61772289,322.8439593,-1.27967062,67188.77527,215520.1274,96.89210771
2020-07-25 08:45:00.000000 UTC,27.79639112,-100.1208951,-73.09539698,31.1112391,-1.11903892,100.1208951,-75.11720166,328.8887609,-1.27964146,67211.66833,230459.1632,98.49644034
2020-07-25 08:55:00.000000 UTC,26.46392862,-111.6384989,-72.42201802,25.06643751,-1.11901342,111.6384989,-74.51592711,334.9335625,-1.2796123,67240.05861,245131.921,99.95208537
2020-07-25 09:05:00.000000 UTC,25.27389508,-122.3001182,-71.68667171,19.02163592,-1.11898792,122.3001182,-73.85820072,340.9783641,-1.27958314,67272.20507,259553.0886,101.2807426
2020-07-25 09:15:00.000000 UTC,24.20403879,-132.25443,-70.92278791,12.97683433,-1.11896242,132.25443,-73.17366253,347.0231657,-1.27955398,67306.84647,273736.3568,102.4999456
2020-07-25 09:25:00.000000 UTC,23.23653609,-141.6308231,-70.15214057,6.93203274,-1.11893692,141.6308231,-72.48168274,353.0679673,-1.27952482,67343.06371,287694.4196,103.6240313
2020-07-25 09:35:00.000000 UTC,22.35694359,-150.5361786,-69.38860225,0.88723114,-1.11891141,150.5361786,-71.79466695,359.1127689,-1.27949565,67380.18415,301439.0155,104.6648479
2020-07-25 09:45:00.000000 UTC,21.55343341,-159.0566125,-68.64078222,-5.15757045,-1.11888591,159.0566125,-71.12037547,5.15757045,-1.27946649,67417.71449,314980.9873,105.6322822
2020-07-25 09:55:00.000000 UTC,20.81622641,-167.2607913,-67.91381507,-11.20237205,-1.11886041,167.2607913,-70.46349538,11.20237205,-1.27943733,67455.29295,328330.3499,106.5346561
2020-07-25 10:05:00.000000 UTC,20.13716637,-175.2033423,-67.21055352,-17.24717364,-1.1188349,175.2033423,-69.82668919,17.24717364,-1.27940817,67492.65494,341496.3585,107.3790299
2020-07-25 10:15:00.000000 UTC,19.50939596,177.0721748,-66.53235905,-23.29197524,-1.1188094,182.9278252,-69.21129061,23.29197524,-1.27937901,67529.6082,354487.575,108.1714377
2020-07-25 10:25:00.000000 UTC,18.92710738,169.5308541,-65.87962549,-29.33677684,-1.1187839,190.4691459,-68.61776606,29.33677684,-1.27934985,67566.01451,367311.9302,108.9170705
2020-07-25 10:35:00.000000 UTC,18.38534822,162.1445464,-65.2521265,-35.38157844,-1.11875839,197.8554536,-68.04602152,35.38157844,-1.27932069,67601.77626,379976.7806,109.6204214
2020-07-25 10:45:00.000000 UTC,17.87986895,154.8903908,-64.64924658,-41.42638004,-1.11873289,205.1096092,-67.49560711,41.42638004,-1.27929153,67636.82641,392488.9606,110.2854019
2020-07-25 10:55:00.000000 UTC,17.40700192,147.7496847,-64.07013499,-47.47118164,-1.11870739,212.2503153,-66.96585398,47.47118164,-1.27926236,67671.12105,404854.8299,110.9154344
2020-07-25 11:05:00.000000 UTC,16.96356455,140.7070156,-63.51380831,-53.51598324,-1.11868188,219.2929844,-66.45596584,53.51598324,-1.2792332,67704.63367,417080.316,111.5135284
2020-07-25 11:15:00.000000 UTC,16.54678126,133.7495905,-62.97921853,-59.56078484,-1.11865638,226.2504095,-65.96508018,59.56078484,-1.27920404,67737.35095,429170.9521,112.0823424